Weather History for Marshfield, MA

Change the Weather History Date:

Sunday, December 30, 2012

  Actual Average (KPYM) Record (KPYM)
Temperature  
Mean Temperature 28 °F -  
Max Temperature 32 °F 40 °F 68 °F (1984)
Min Temperature 24 °F 20 °F -14 °F (1987)
Degree Days  
Heating Degree Days 37    
Moisture  
Dew Point 23 °F    
Average Humidity 74    
Maximum Humidity 100    
Minimum Humidity 55    
Precipitation  
Precipitation 0.01 in - - ()
Sea Level Pressure  
Sea Level Pressure 29.67 in    
Wind  
Wind Speed 12 mph (WNW)    
Max Wind Speed 16 mph    
Max Gust Speed 29 mph    
Visibility 9 miles    
Events      
Averages and records for this station are not official NWS values.
T = Trace of Precipitation, MM = Missing Value Source: NWS Daily Summary

Daily Weather History Graph

Daily Weather History Graph

Search for Another Location

Airport:

Trip Planner

Search our weather history database for the weather conditions in past years. The results will help you decide how hot, cold, wet, or windy it might be!

Date:

Astronomy

Dec. 30, 2012 Rise Set
Actual Time 7:10 AM EST 4:20 PM EST
Civil Twilight 6:39 AM EST 4:51 PM EST
Nautical Twilight 6:03 AM EST 5:27 PM EST
Astronomical Twilight 5:29 AM EST 6:01 PM EST
Moon 6:51 PM EST (12/30) 8:15 AM EST (12/30)
Length of Visible Light 10h 12m
Length of Day
9h 09m
Waning Gibbous, 95% of the Moon is Illuminated
Dec 30
Waning Gibbous
Jan 4
Last Quarter
Jan 11
New
Jan 18
First Quarter
Jan 26
Full

Hourly Weather History & Observations

Time (EST) Temp. Windchill Dew Point Humidity Pressure Visibility Wind Dir Wind Speed Gust Speed Precip Events Conditions
12:15 AM 32.0 °F 21.6 °F 32.0 °F 100% 29.38 in 0.5 mi NW 15.0 mph 23.0 mph 0.01 in   Overcast
12:35 AM 32.0 °F 23.0 °F 32.0 °F 100% 29.38 in 0.8 mi NW 11.5 mph 21.9 mph 0.01 in   Overcast
12:55 AM 32.0 °F 23.0 °F 32.0 °F 100% 29.39 in 1.0 mi NW 11.5 mph 20.7 mph 0.01 in   Overcast
1:15 AM 32.0 °F 22.5 °F 32.0 °F 100% 29.39 in 2.0 mi NW 12.7 mph 16.1 mph N/A   Overcast
1:35 AM 32.0 °F 23.0 °F 30.2 °F 93% 29.40 in 2.5 mi NW 11.5 mph 23.0 mph N/A   Overcast
1:55 AM 32.0 °F 23.0 °F 30.2 °F 93% 29.41 in 3.0 mi NW 11.5 mph 18.4 mph N/A   Overcast
2:15 AM 32.0 °F 24.2 °F 30.2 °F 93% 29.41 in 3.0 mi NW 9.2 mph 19.6 mph N/A   Overcast
2:35 AM 32.0 °F 24.8 °F 30.2 °F 93% 29.43 in 3.0 mi WNW 8.1 mph 17.3 mph N/A   Overcast
2:55 AM 32.0 °F 24.8 °F 30.2 °F 93% 29.44 in 10.0 mi WNW 8.1 mph 16.1 mph N/A   Overcast
3:15 AM 32.0 °F 24.2 °F 30.2 °F 93% 29.45 in 10.0 mi WNW 9.2 mph - N/A   Overcast
3:35 AM 32.0 °F 23.0 °F 30.2 °F 93% 29.46 in 10.0 mi WNW 11.5 mph 19.6 mph N/A   Overcast
3:55 AM 32.0 °F 23.0 °F 30.2 °F 93% 29.47 in 10.0 mi WNW 11.5 mph 19.6 mph N/A   Overcast
4:15 AM 32.0 °F 24.8 °F 28.4 °F 87% 29.47 in 10.0 mi WNW 8.1 mph - N/A   Mostly Cloudy
4:35 AM 32.0 °F 26.4 °F 28.4 °F 87% 29.47 in 10.0 mi West 5.8 mph - N/A   Mostly Cloudy
4:55 AM 32.0 °F 25.6 °F 28.4 °F 87% 29.48 in 10.0 mi West 6.9 mph - N/A   Mostly Cloudy
5:15 AM 32.0 °F 25.6 °F 28.4 °F 87% 29.49 in 10.0 mi West 6.9 mph - N/A   Mostly Cloudy
5:35 AM 32.0 °F 26.4 °F 28.4 °F 87% 29.51 in 10.0 mi West 5.8 mph - N/A   Scattered Clouds
5:55 AM 32.0 °F 25.6 °F 28.4 °F 87% 29.51 in 10.0 mi West 6.9 mph - N/A   Mostly Cloudy
6:15 AM 32.0 °F 25.6 °F 28.4 °F 87% 29.52 in 10.0 mi West 6.9 mph - N/A   Mostly Cloudy
6:35 AM 32.0 °F 25.6 °F 28.4 °F 87% 29.54 in 10.0 mi WNW 6.9 mph - N/A   Scattered Clouds
6:55 AM 32.0 °F 24.2 °F 28.4 °F 87% 29.55 in 10.0 mi WNW 9.2 mph - N/A   Overcast
7:15 AM 30.2 °F 23.4 °F 28.4 °F 93% 29.56 in 8.0 mi WNW 6.9 mph - N/A   Overcast
7:55 AM 30.2 °F 19.8 °F 28.4 °F 93% 29.57 in 4.0 mi WNW 13.8 mph 18.4 mph N/A   Mostly Cloudy
8:15 AM 30.2 °F 21.9 °F 26.6 °F 86% 29.58 in 9.0 mi West 9.2 mph 17.3 mph N/A   Mostly Cloudy
8:35 AM 30.2 °F 19.8 °F 26.6 °F 86% 29.59 in 10.0 mi WNW 13.8 mph 20.7 mph N/A   Mostly Cloudy
8:55 AM 30.2 °F 20.8 °F 26.6 °F 86% 29.61 in 10.0 mi West 11.5 mph 17.3 mph N/A   Partly Cloudy
9:15 AM 30.2 °F 18.9 °F 24.8 °F 80% 29.61 in 10.0 mi West 16.1 mph 25.3 mph N/A   Clear
9:35 AM 30.2 °F 21.3 °F 24.8 °F 80% 29.63 in 10.0 mi West 10.4 mph 18.4 mph N/A   Clear
9:55 AM 30.2 °F 19.8 °F 24.8 °F 80% 29.63 in 6.0 mi West 13.8 mph 19.6 mph N/A   Clear
10:15 AM 30.2 °F 18.9 °F 24.8 °F 80% 29.63 in 10.0 mi West 16.1 mph 24.2 mph N/A   Clear
10:35 AM 30.2 °F 18.9 °F 24.8 °F 80% 29.63 in 10.0 mi West 16.1 mph 26.5 mph N/A   Clear
11:15 AM 32.0 °F 22.1 °F 23.0 °F 69% 29.64 in 10.0 mi West 13.8 mph 21.9 mph N/A   Clear
11:35 AM 32.0 °F 21.2 °F 23.0 °F 69% 29.64 in 10.0 mi West 16.1 mph 26.5 mph N/A   Clear
11:55 AM 32.0 °F 21.2 °F 26.6 °F 80% 29.65 in 10.0 mi West 16.1 mph 24.2 mph N/A   Partly Cloudy
12:15 PM 32.0 °F 22.5 °F 23.0 °F 69% 29.65 in 10.0 mi West 12.7 mph 24.2 mph N/A   Partly Cloudy
12:35 PM 32.0 °F 22.5 °F 23.0 °F 69% 29.65 in 10.0 mi West 12.7 mph 25.3 mph N/A   Partly Cloudy
12:55 PM 32.0 °F 22.5 °F 23.0 °F 69% 29.65 in 10.0 mi West 12.7 mph 21.9 mph N/A   Scattered Clouds
1:15 PM 32.0 °F 23.0 °F 23.0 °F 69% 29.66 in 10.0 mi West 11.5 mph 21.9 mph N/A   Partly Cloudy
1:35 PM 32.0 °F 23.0 °F 23.0 °F 69% 29.66 in 10.0 mi West 11.5 mph 20.7 mph N/A   Clear
1:55 PM 32.0 °F 23.6 °F 23.0 °F 69% 29.67 in 10.0 mi West 10.4 mph 23.0 mph N/A   Partly Cloudy
2:15 PM 32.0 °F 22.5 °F 23.0 °F 69% 29.67 in 10.0 mi West 12.7 mph 18.4 mph N/A   Clear
2:35 PM 32.0 °F 22.5 °F 21.2 °F 64% 29.68 in 10.0 mi West 12.7 mph 23.0 mph N/A   Clear
2:55 PM 32.0 °F 23.0 °F 21.2 °F 64% 29.69 in 10.0 mi WNW 11.5 mph 21.9 mph N/A   Clear
3:15 PM 32.0 °F 23.0 °F 21.2 °F 64% 29.70 in 10.0 mi West 11.5 mph 20.7 mph N/A   Clear
3:35 PM 32.0 °F 23.0 °F 21.2 °F 64% 29.72 in 10.0 mi WNW 11.5 mph 17.3 mph N/A   Clear
3:55 PM 30.2 °F 21.3 °F 19.4 °F 64% 29.73 in 10.0 mi WNW 10.4 mph 23.0 mph N/A   Clear
4:15 PM 30.2 °F 19.8 °F 19.4 °F 64% 29.74 in 10.0 mi West 13.8 mph 21.9 mph N/A   Clear
4:35 PM 30.2 °F 20.8 °F 19.4 °F 64% 29.76 in 10.0 mi West 11.5 mph 24.2 mph N/A   Clear
4:55 PM 30.2 °F 21.3 °F 17.6 °F 60% 29.77 in 10.0 mi West 10.4 mph 19.6 mph N/A   Clear
5:15 PM 30.2 °F 20.8 °F 17.6 °F 60% 29.78 in 10.0 mi West 11.5 mph 19.6 mph N/A   Clear
5:35 PM 28.4 °F 19.7 °F 17.6 °F 64% 29.80 in 10.0 mi West 9.2 mph 20.7 mph N/A   Clear
5:55 PM 28.4 °F 16.6 °F 17.6 °F 64% 29.81 in 10.0 mi West 16.1 mph 23.0 mph N/A   Clear
6:15 PM 28.4 °F 18.0 °F 15.8 °F 59% 29.82 in 10.0 mi West 12.7 mph 25.3 mph N/A   Clear
6:35 PM 28.4 °F 18.5 °F 15.8 °F 59% 29.84 in 10.0 mi West 11.5 mph 23.0 mph N/A   Clear
6:55 PM 28.4 °F 17.0 °F 15.8 °F 59% 29.86 in 10.0 mi WNW 15.0 mph 26.5 mph N/A   Clear
7:15 PM 28.4 °F 19.1 °F 15.8 °F 59% 29.87 in 10.0 mi West 10.4 mph 25.3 mph N/A   Clear
7:35 PM 28.4 °F 17.5 °F 14.0 °F 55% 29.88 in 10.0 mi West 13.8 mph 20.7 mph N/A   Clear
7:55 PM 28.4 °F 19.7 °F 14.0 °F 55% 29.89 in 10.0 mi WNW 9.2 mph 17.3 mph N/A   Clear
8:15 PM 28.4 °F 18.5 °F 14.0 °F 55% 29.90 in 10.0 mi WNW 11.5 mph 25.3 mph N/A   Clear
8:35 PM 26.6 °F 16.2 °F 14.0 °F 59% 29.90 in 10.0 mi WNW 11.5 mph 20.7 mph N/A   Clear
8:55 PM 26.6 °F 14.3 °F 14.0 °F 59% 29.90 in 10.0 mi West 16.1 mph 24.2 mph N/A   Clear
9:15 PM 26.6 °F 18.2 °F 14.0 °F 59% 29.91 in 10.0 mi West 8.1 mph 25.3 mph N/A   Clear
9:35 PM 26.6 °F 14.3 °F 14.0 °F 59% 29.91 in 10.0 mi West 16.1 mph 23.0 mph N/A   Clear
9:55 PM 26.6 °F 14.7 °F 14.0 °F 59% 29.92 in 10.0 mi West 15.0 mph 24.2 mph N/A   Clear
10:15 PM 26.6 °F 15.2 °F 12.2 °F 55% 29.93 in 10.0 mi West 13.8 mph 25.3 mph N/A   Clear
10:35 PM 26.6 °F 15.2 °F 12.2 °F 55% 29.94 in 10.0 mi West 13.8 mph 28.8 mph N/A   Clear
10:55 PM 24.8 °F 13.4 °F 12.2 °F 59% 29.96 in 10.0 mi West 12.7 mph 20.7 mph N/A   Clear
11:15 PM 24.8 °F 13.4 °F 12.2 °F 59% 29.96 in 10.0 mi West 12.7 mph 25.3 mph N/A   Clear
11:35 PM 24.8 °F 14.6 °F 12.2 °F 59% 29.97 in 10.0 mi West 10.4 mph 24.2 mph N/A   Clear
11:55 PM 24.8 °F 13.4 °F 12.2 °F 59% 29.97 in 10.0 mi West 12.7 mph 25.3 mph N/A   Clear